UmKA 1 (RS40S)
1 57172U 23091G   26157.82932346  .00007341  00000-0  33627-3 0  9994
2 57172  97.5051 216.5671 0013718 150.2225 209.9794 15.20698386162430
CubeBel-2 (EU11S)
1 57175U 23091K   26157.84383168  .00014583  00000-0  52072-3 0  9992
2 57175  97.5052 220.9703 0010974 146.2864 213.9076 15.28902621162722
RS-38S
1 57189U 23091Z   26157.85359706  .00019633  00000-0  56652-3 0  9998
2 57189  97.5090 227.1344 0008733 108.2854 251.9340 15.35694753163107
SONATE-2
1 59112U 24043Q   26157.67150862  .00045896  00000-0  61269-3 0  9996
2 59112  97.5528 307.4302 0006579 232.3278 127.7381 15.57931629126252
GRBBeta
1 60237U 24128C   26157.60088395  .00005323  00000-0  36512-3 0  9998
2 60237  61.9899 253.4064 0042034 132.5127 227.9529 15.06565866104672
Curium One
1 60242U 24128H   26157.79031333  .00010005  00000-0  57395-3 0  9999
2 60242  61.9783 242.5961 0041443 128.5729 231.9091 15.12374965104888
ROBUSTA-3A
1 60243U 24128J   26157.61704685  .00009590  00000-0  56280-3 0  9997
2 60243  61.9860 245.6203 0042816 125.8059 234.7027 15.11543644104824
CatSat
1 60246U 24125J   26157.86366296  .00067046  00000-0  89930-3 0  9994
2 60246  97.2095  10.2393 0021872 216.2221 143.7555 15.57450024105780
HYPERVIEW-1G (RS66S)
1 61772U 24199AP  26157.83031023  .00142125  00000-0  10213-2 0  9993
2 61772  97.2892  37.0456 0002051 298.1412  61.9645 15.73200059133046
AO-123
1 61781U 24199AY  26157.86921005  .00008861  00000-0  25822-3 0  9995
2 61781  97.3012  26.6333 0013411 353.6877   6.4195 15.35526101132346
JINJUSat 1B
1 63210U 25052A   26157.50867592  .00022129  00000-0  69153-3 0  9992
2 63210  97.4013  54.2512 0005290 113.4480 246.7319 15.33167801 68465
NUSHSAT 1
1 63211U 25052B   26157.50407947  .00027198  00000-0  78737-3 0  9996
2 63211  97.3984  54.7767 0005087 114.5170 245.6604 15.35549003 68501
TEVEL2-4
1 63213U 25052D   26156.96547016  .00026125  00000-0  78941-3 0  9995
2 63213  97.3920  53.3411 0004284 125.1509 235.0135 15.34208415 68393
TEVEL2-5
1 63214U 25052E   26157.44133364  .00024190  00000-0  73469-3 0  9997
2 63214  97.3910  53.7683 0004296 125.4892 234.6752 15.34062158 68469
TEVEL2-6
1 63215U 25052F   26157.45341113  .00024595  00000-0  74779-3 0  9996
2 63215  97.3913  53.7648 0004377 125.1583 235.0071 15.34024635 68465
TEVEL2-1
1 63217U 25052H   26156.43470878  .00016797  00000-0  52119-3 0  9995
2 63217  97.3883  52.3839 0004006 136.2880 223.8680 15.33457579 68290
TEVEL2-3
1 63218U 25052J   26156.95177655  .00025388  00000-0  78364-3 0  9996
2 63218  97.3885  52.9211 0004225 137.0459 223.1114 15.33537694 68378
TEVEL2-2
1 63219U 25052K   26156.95711226  .00023721  00000-0  73356-3 0  9990
2 63219  97.3886  52.9080 0004028 136.8186 223.3373 15.33493507 68372
TEVEL2-9
1 63237U 25052AD  26157.44282299  .00022342  00000-0  73371-3 0  9993
2 63237  97.3947  52.7914 0006696 161.4993 198.6493 15.31566572 68386
TEVEL2-7
1 63238U 25052AE  26156.43613090  .00014789  00000-0  49200-3 0  9999
2 63238  97.3949  51.7085 0006681 165.6962 194.4470 15.31236048 68227
TEVEL2-8
1 63239U 25052AF  26157.62053289  .00018969  00000-0  62937-3 0  9996
2 63239  97.3947  52.8668 0006811 162.3481 197.7998 15.31268208 68404
SPIRONE
1 66657U 25274H   26157.06643788  .00002717  00000-0  26314-3 0  9999
2 66657  97.7477  86.5169 0013390  55.8796 304.3692 14.93497696 28560
K-HERO
1 66660U 25274L   26157.54300721  .00002831  00000-0  27091-3 0  9993
2 66660  97.7483  87.1398 0015354  58.0607 302.2104 14.93920002 28646
SNUGLITE-III DURI
1 66661U 25274M   26157.59805265  .00002049  00000-0  19733-3 0  9997
2 66661  97.7480  87.2144 0015881  58.3493 301.9274 14.93963685 28654
SAKHACUBE-CHOLBON
1 67290U 25313AU  26157.20093902  .00013849  00000-0  56171-3 0  9992
2 67290  97.3921 232.3739 0010001  42.4337 317.7672 15.24692109 24302
RS95S (QMR-KWT-2)
1 67291U 25313AV  26157.46128686  .00018147  00000-0  70640-3 0  9992
2 67291  97.3928 232.7854 0009297  41.1082 319.0855 15.26014072 24352
Ten-Koh2
1 68261U 25241B   26153.84997429  .00006883  00000-0  29609-3 0  9990
2 68261  51.6660  27.8529 0006535 101.1658 259.0055 15.23719437 12723
JACK-002
1 68417U 26067B   26157.62377191  .00008932  00000-0  42666-3 0  9993
2 68417  97.4565 116.3463 0001456  24.9807 335.1498 15.19262854 10348
DISCO 2
1 68431U 26067R   26157.84024770  .00009915  00000-0  47790-3 0  9990
2 68431  97.4597 116.5492 0003670  61.0860 299.0742 15.18914757 10372
HADES-SA (SpinnyONE)
1 68446U 26067AG  26157.61516948  .00023524  00000-0  11331-2 0  9997
2 68446  97.4429 116.0749 0009648 109.1186 251.1093 15.18701392 10320
PARUS-6U1
1 68456U 26067AS  26157.63780750  .00007472  00000-0  37676-3 0  9999
2 68456  97.4549 116.1653 0007602  98.9556 261.2538 15.17405142 10333
SAL-E
1 68458U 26067AU  26157.63477439  .00010190  00000-0  50948-3 0  9996
2 68458  97.4476 116.1049 0007865 106.2809 253.9291 15.17606820 10338
FSI-SAT 2
1 68792U 26088A   26157.66047281  .00005009  00000-0  33997-3 0  9999
2 68792  97.5062 307.1861 0015625 139.2522 220.9877 15.06749013  6706
OrigamiSat 2
1 68795U 26088D   26157.15173919  .00004778  00000-0  30973-3 0  9997
2 68795  97.5093 306.7948 0016654 116.2403 244.0540 15.08459772  6638
ARICA 2
1 68796U 26088E   26157.68006049  .00005760  00000-0  37367-3 0  9991
2 68796  97.5060 307.3068 0017209 113.0572 247.2473 15.08343551  6718
WASEDA-SAT-ZERO-II
1 68797U 26088F   26157.67715353  .00008157  00000-0  52478-3 0  9999
2 68797  97.5056 307.3099 0017056 112.9069 247.3962 15.08523631  6710
MANGARO-II-Piscus
1 68798U 26088G   26157.66873650  .00004797  00000-0  30836-3 0  9994
2 68798  97.5064 307.3264 0020628 115.7145 244.6217 15.08707923  6710
IO-86
1 40931U          25360.30710720  .00000000  00000-0  12800-3 0    00
2 40931   6.0006 332.5373 0012733 338.8432   8.1437 14.79075515    01
LILIUM-4                
1 71922C 26067AC  26089.50133053 -.00014632  00000+0 -74472-3 0    04
2 71922  97.4497  49.1617 0004341   5.9603 355.7042 15.16896692    16
